www.pogodaiklimat.ru

Погода и климат >> Архив погоды >> Аргентина >> Пресиденсиа-Роке-Саэнс-Пенья


ПОГОДА в Пресиденсиа-Роке-Саэнс-Пеньи

  • Прогноз погоды в Пресиденсиа-Роке-Саэнс-Пеньи
  • Монитор погоды в Пресиденсиа-Роке-Саэнс-Пеньи

АРХИВ ПОГОДЫ в Пресиденсиа-Роке-Саэнс-Пеньи

Время (UTC), дата Ветер
(напр.,м/с)
 
Видим.   Явления Облачность Т
(С)
Тd
(С)
f
(%)
Тe
(С)
Тes
(С)
Комфортность P
(гПа)
Po
(гПа)
Тmin
(С)
Tmax
(С)
R
(мм)
R24
(мм)
S
(см)
15 11.04 ЮЗ 3 20 км 4/1 600 м
[Cu hum Ac cast Ci]
+26.5 +17.9 59 +31 +39 душно 1014.5 1003.8
18 11.04 Ю 3 20 км 4/4 600 м
[Cu hum]
+28.8 +17.4 50 +33 +39 очень
душно
1012.6 1002.0
21 11.04 Ю 3 20 км 3/0
[Ac trans Ci fib]
+27.3 +18.1 57 +32 +32 очень
душно
1011.8 1001.0
00 12.04 Ю 3 20 км ясно +19.3 +16.0 81 +21 +21 комфорт 1012.9 1002.1 +19.3 +30.0
03 12.04 Ю 2 20 км ясно +17.7 +15.5 87 +18 +18 1013.9 1003.2
06 12.04 Ю 2 20 км ясно +14.7 +14.4 98 +15 +15 1013.8 1003.0
09 12.04 Ю 2 8000 м дымка ясно +15.2 +15.0 99 +15 +15 1012.9 1002.2
12 12.04 В 2 20 км ясно +17.0 +15.7 92 +17 +20 1014.3 1003.4 +14.1 +19.3
15 12.04 В 2 20 км 1/0
[Cs]
+22.8 +16.3 67 +27 +40 душно 1014.1 1003.3
18 12.04 В 2 20 км 5/0
[Cs]
+26.5 +14.3 47 +29 +38 жарко 1011.1 1000.4
21 12.04 В 2 20 км 4/0
[Ac trans]
+24.9 +15.6 56 +28 +28 жарко 1009.6 998.9
00 13.04 Ю 1 20 км ясно +16.7 +16.0 96 +18 +18 1009.9 999.0 +16.7 +27.2
03 13.04 штиль 0 20 км ясно +14.3 +13.8 97 +14 +14 1009.9 999.0
06 13.04 В 2 20 км 4/0
[Ac trans]
+16.4 +15.0 91 +17 +17 1008.6 997.8
09 13.04 В 2 20 км ясно +15.0 +14.7 98 +15 +15 1007.8 997.0
12 13.04 В 2 8000 м дымка 1/0
[Ac und]
+17.2 +15.5 90 +18 +21 1009.4 998.6 +13.5 +17.2
15 13.04 В 4 20 км 8/1 900 м
[Sc Ac trans]
+24.6 +15.6 57 +28 +32 душно 1008.6 997.8
18 13.04 В 3 20 км 8/0
[Ac As]
+27.7 +15.4 47 +31 +34 душно 1006.2 995.6
21 13.04 В 1 20 км 9/0
[Ac As]
+25.3 +19.5 70 +31 +31 очень
душно
1005.3 994.6
00 14.04 штиль 0 20 км 3/0
[Ac trans]
+21.9 +19.1 84 +27 +27 душно 1006.1 995.4 +17.2 +28.5
03 14.04 штиль 0 20 км ясно +20.6 +17.9 85 +24 +24 комфорт 1006.4 995.8
06 14.04 штиль 0 20 км 6/0
[Ac As]
+18.5 +18.0 97 +19 +19 1006.7 996.1
09 14.04 В 1 20 км 6/0
[Ac As]
+19.3 +18.5 95 +23 +23 комфорт 1006.0 995.4
12 14.04 В 1 20 км 9/5 750 м
[Sc Ac As]
+21.7 +19.7 88 +27 +28 душно 1008.9 998.2 +18.1 +21.9
15 14.04 В 3 20 км 3/1 1050 м
[Cu med, cong Ac trans]
+30.1 +22.6 64 +39 +49 очень
душно
1009.0 998.5
18 14.04 В 2 20 км 6/4 750 м
[Cu med, cong Cs]
+31.9 +22.5 58 +42 +48 опасность
перегрева
1007.1 996.6
21 14.04 В 2 20 км 1/1 750 м
[Cu hum]
+30.7 +23.4 65 +41 +42 опасность
перегрева
1006.3 995.8
00 15.04 ЮВ 1 20 км ясно +26.3 +23.0 82 +35 +35 очень
душно
1008.0 997.4 +21.7 +32.9
03 15.04 штиль 0 20 км ясно +23.6 +22.0 91 +30 +30 очень
душно
1009.2 998.6
06 15.04 В 2 20 км 3/0
[Cs]
+22.7 +21.5 93 +30 +30 очень
душно
1008.9 998.4
09 15.04 В 2 20 км зарница 4/1 1200 м
[Cb cap Cs]
+22.3 +21.4 95 +29 +29 очень
душно
1008.7 998.2
12 15.04 В 2 20 км зарница 8/1 1200 м
[Cb cap Ac As Cs]
+22.9 +21.9 94 +31 +32 очень
душно
1010.1 999.4 +21.7 +26.3
15 15.04 С 7 20 км 8/0
[Ac trans Cs]
+28.5 +23.5 74 +39 +41 очень
душно
1010.4 999.8
18 15.04 В 1 20 км 9/1 900 м
[Cu med, cong Ac As Cs]
+28.0 +23.7 77 +38 +44 очень
душно
1008.8 998.2
21 15.04 Ю 5
{15}
1000 м сильн. гроза, ливневой дождь 10/4 600 м
[Cb cap As op]
+20.4 +19.9 97 +24 +24 комфорт 1012.2 1001.4
00 16.04 В 2 20 км гроза без осадков туман 8/3 600 м
[Cb cap Ac As]
+20.1 +19.5 96 +24 +24 комфорт 1013.4 1002.6 +19.7 +30.0 47
03 16.04 ЮЗ 1 20 км {гроза} 10/10 240 м
[St]
+18.8 +18.8 100 +22 +22 комфорт 1014.3 1003.6
06 16.04 Ю 2 20 км {гроза} 10/10 240 м
[St]
+19.6 +19.4 99 +23 +23 комфорт 1014.4 1003.8
09 16.04 Ю 4 2000 м слаб. морось 10/10 150 м
[St]
+18.6 +18.4 99 +20 +20 1015.5 1004.6
12 16.04 Ю 3 2000 м слаб. морось 10/10 150 м
[St]
+18.0 +17.7 98 +18 +18 1017.0 1006.2 +17.5 +20.1 0.3
15 16.04 Ю 3 20 км {морось} 8/4 450 м
[Sc Ac As]
+20.9 +17.2 79 +25 +29 комфорт 1016.6 1005.8
18 16.04 ЮВ 2 20 км {морось} 1/1 600 м
[Sc]
+24.4 +18.0 68 +29 +38 душно 1013.6 1002.9 0.0
21 16.04 ЮВ 2 20 км 1/1 600 м
[Sc]
+24.4 +17.8 67 +29 +29 душно 1011.9 1001.2
00 17.04 штиль 0 20 км ясно +18.3 +17.3 94 +19 +19 1011.8 1001.0 +18.0 +26.0
03 17.04 В 2 20 км 6/0
[Ac trans]
+18.5 +18.5 100 +20 +20 1012.6 1001.8
06 17.04 В 1 20 км ясно +15.7 +15.5 99 +17 +17 1012.6 1001.8
09 17.04 штиль 0 500 м туман ясно +13.9 +13.9 100 +13 +13 1011.4 1000.6
12 17.04 СВ 2 4000 м в посл. час туман 3/1 150 м
[Frnb Cs]
+16.3 +16.1 99 +17 +19 1012.5 1001.6 +12.9 +19.2 0.0
15 17.04 Ю 2 20 км 4/1 600 м
[Cu hum Ci]
+23.1 +17.7 72 +29 +40 очень
душно
1012.6 1001.8
18 17.04 В 1 20 км 3/0
[Ci]
+26.5 +17.2 57 +31 +41 душно 1009.3 998.6
21 17.04 В 2 20 км 1/0
[Ci]
+25.9 +18.8 65 +31 +31 очень
душно
1008.3 997.6
00 18.04 Ю 1 20 км ясно +21.1 +18.6 86 +25 +25 комфорт 1009.6 998.8 +16.3 +27.0
03 18.04 В 2 20 км ясно +19.5 +17.6 89 +22 +22 комфорт 1009.7 999.0
06 18.04 ЮВ 1 20 км ясно +17.6 +16.8 95 +19 +19 1009.6 998.9
09 18.04 В 2 20 км 1/0
[Ac trans]
+17.0 +16.7 98 +17 +17 1008.8 998.1
12 18.04 В 3 8000 м дымка 1/0
[Ci fib]
+19.7 +17.4 87 +23 +25 комфорт 1009.6 998.9 +16.5 +21.1

 

Местоположение метеостанции Пресиденсиа-Роке-Саэнс-Пенья (Аргентина): широта -26.73 долгота -60.48 высота над уровнем моря 93 м.

В архиве по умолчанию представлена погода в Пресиденсиа-Роке-Саэнс-Пеньи за последнюю неделю. Архивные данные за месяц целиком и за предыдущие месяцы, начиная с января 2011 года, Вы можете получить, выбрав интересующий диапазон дат из раскрывающегося списка и нажав кнопку "Ввод!".


*Определитесь, кто Вы:
робот инопланетянин человек

Внимание! Время в таблицах - всемирное. Для получения местного времени необходимо прибавить поправку, которая равна -3 ч.

Смотрите также архив погоды в соседних городах и на ближайших метеорологических станциях:

Погода в Ресистенсии (Аргентина) (163 км)
Погода в Корриентесе (Аргентина) (188 км)
Погода в Пиларе (Парагвай) (216 км)
Погода в Лас-Ломитасе (Аргентина) (226 км)
Погода в Формосе (Аргентина) (232 км)
Погода в Грал Бругуез (Парагвай) (274 км)
Погода в Реконкисте (Аргентина) (283 км)
Погода в Сан Хуан Батистута (Парагвай) (331 км)
Погода в Асунсьоне (Парагвай) (339 км)
Погода в Куйкуйо (Парагвай) (353 км)

Пояснения к столбцам:

Ветер - указаны скорость ветра в м/с - средняя за 10 мин, порывы в срок и между сроками (в фигурных скобках) и направление, откуда дует ветер: С - северный, СВ - северо-восточный, В - восточный, ЮВ - юго-восточный, Ю - южный, ЮЗ - юго-западный, З - западный, СЗ - северо-западный.
Видимость - горизонтальная дальность видимости в метрах или километрах. При видимости от 1 до 10 км при отсутствии осадков обычно наблюдается дымка, при ухудшении видимости до 1 км и менее - туман. В сухую погоду видимость может ухудшаться дымом, пылью или мглою.
Явления - указаны атмосферные явления, наблюдавшиеся в срок или в последний час перед сроком; фигурными скобками обозначены явления, наблюдавшиеся между сроками (за 1-3 часа до срока); квадратными скобками обозначены град или гололедные отложения с указанием их диаметра в мм.
Облачность - указаны через наклонную черту общая и нижняя облачность в баллах и высота нижней границы облаков в метрах; квадратными скобками обозначены формы облаков: Ci - перистые, Cs - перисто-слоистые, Cc - перисто-кучевые, Ac - высококучевые, As - высокослоистые, Sc - слоисто-кучевые, Ns - слоисто-дождевые, Cu - кучевые, Cb - кучево-дождевые. Подробнее классификацию облаков см. в Атласе облаков (PDF).
T - Температура воздуха - температура, измеренная на высоте 2 м над землей.
Td - Температура точки росы - температура, при понижении до которой содержащийся в воздухе водяной пар достигнет насыщения.
f - Относительная влажность воздуха - влажноcть воздуха, измеренная на высоте 2 м над землей.
Te - Эффективная температура - температура, которую ощущает одетый по сезону человек в тени. Характеристика душности погоды. При расчете учитывается влияние влажности воздуха и скорости ветра на теплоощущения человека.
Tes - Эффективная температура на солнце - температура, которую ощущает человек, с поправкой на солнечный нагрев. Характеристика знойности погоды. Зависит от высоты солнца над горизонтом, облачности и скорости ветра. Ночью, в пасмурную погоду, а также при ветре 12 м/с и более поправка равна нулю.
P - Атмосферное давление - приведенное к уровню моря атмосферное давление.
Po - Атмосферное давление - измеренное на уровне метеостанции атмосферное давление.
Tmin - Минимальная температура - минимум температуры воздуха на высоте 2 м над землей.
Tmax - Максимальная температура - максимум температуры воздуха на высоте 2 м над землей.
R - Количество осадков - Количество выпавших осадков за период времени, мм. При наведении курсора мыши на число - период времени, за который выпало указанное количество осадков.
R24 - Количество осадков - Количество выпавших осадков за 24 часа, мм.
S - Снежный покров - Высота снежного покрова, см. При наведении курсора мыши на число - состояние снежного покрова и степень покрытия местности в баллах.